AirNav   Bose A20 Aviation Headset
 
 989 users online  

4T2 Kenneth Copeland Airport
Fort Worth, Texas, USA

GOING TO FORT WORTH?


FAA INFORMATION EFFECTIVE 11 OCTOBER 2018

Location

FAA Identifier: 4T2
Lat/Long: 32-58-39.4742N / 097-29-32.2572W
32-58.657903N / 097-29.537620W
32.9776317 / -97.4922937
(estimated)
Elevation: 693 ft. / 211.2 m (surveyed)
Variation: 04E (2015)
From city: 18 miles NW of FORT WORTH, TX
Time zone: UTC -5 (UTC -6 during Standard Time)
Zip code: 76179

Airport Operations

Airport use: Open to the public
Activation date: 03/1981
Control tower: no
ARTCC: FORT WORTH CENTER
FSS: FORT WORTH FLIGHT SERVICE STATION
NOTAMs facility: FTW (NOTAM-D service available)
Attendance: UNATNDD
Wind indicator: lighted
Segmented circle: no
Lights: ACTVT LIRL RY 17/35 & TWY - CTAF.
Beacon: white-green (lighted land airport)
Operates sunset to sunrise.

Airport Communications

CTAF/UNICOM: 123.075
WX ASOS at AFW (9 nm E): PHONE 817-491-6188
WX ASOS at FTW (12 nm SE): PHONE 817-740-3346
WX AWOS-3 at LUD (17 nm N): 118.225 (940-627-2365)

Nearby radio navigation aids

VOR radial/distance  VOR name  Freq  Var
FUZr283/16.6RANGER VORTAC115.7006E
TTTr280/23.7MAVERICK VOR/DME113.1006E
MQPr050/29.6MILLSAP VORTAC117.7009E
CVEr274/30.1COWBOY VOR/DME116.2006E
UKWr148/37.3BOWIE VORTAC117.1506E

 
NDB name  Hdg/Dist  Freq  Var  ID
MUFIN302/7.936508EFT ..-. -

Airport Services

Runway Information

Runway 17/35

Dimensions: 5943 x 127 ft. / 1811 x 39 m
Surface: asphalt/concrete, in fair condition
OUTER 50 FT OF EACH SIDE OF RY IS ASPH, CENTER 40 FT IS CONC ON RY 17 END; ASPH ON RY 35 END.
Runway edge lights: low intensity
RUNWAY 17  RUNWAY 35
Latitude: 32-59.146348N32-58.169458N
Longitude: 097-29.584168W097-29.491070W
Elevation: 687.5 ft.660.1 ft.
Gradient: 0.5% UP
Traffic pattern: leftleft
Runway heading: 171 magnetic, 175 true351 magnetic, 355 true
Markings: nonprecision, in good conditionnonprecision, in good condition
Touchdown point: yes, no lightsyes, no lights
Obstructions: 18 ft. ant, 484 ft. from runway, 250 ft. left of centerline, 15:1 slope to clear
10 FT ROAD 0-40 FT' FM RY END 0 FT BOTH SIDES.
53 ft. trees, 1264 ft. from runway, 20:1 slope to clear
10 FT ROAD 0 FT DST 130 R; 5 FT FENCE 0-200 FT FM RY END 165 FT R.

Airport Ownership and Management from official FAA records

Ownership: Privately-owned
Owner: KEN COPELAND MINISTRIES
14355 MORRIS DIDO RD.
NEWARK, TX 76071
Phone 817-252-3501
Manager: PAUL BRIDGES
14355 MORRIS DIDO RD
NEWARK, TX 76071
Phone 817-252-3520

Airport Operational Statistics

Aircraft based on the field: 5
Single engine airplanes: 3
Jet airplanes: 2
    
Aircraft operations: avg 52/week *
67% local general aviation
33% transient general aviation
* for 12-month period ending 31 December 2015

Additional Remarks

ARPT CLSD TO TSNT ACFT EXCP 3 HRS PPR.
TWY A OUTER 18 FT OF EACH SIDE OF TWY IS ASPH, CENTER 39 FT IS CONC..
HEAVY HELICOPTER ACTIVITY IN AREA.
FOR CD CTC REGIONAL APCH AT 972-615-2799.

Instrument Procedures

NOTE: All procedures below are presented as PDF files. If you need a reader for these files, you should download the free Adobe Reader.

NOT FOR NAVIGATION. Please procure official charts for flight.
FAA instrument procedures published for use from 11 October 2018 at 0901Z to 8 November 2018 at 0900Z.

 
IAPs - Instrument Approach Procedures
RNAV (GPS) RWY 17   download (224KB)
RNAV (GPS) RWY 35   download (213KB)
NOTE: Special Take-Off Minimums/Departure Procedures apply   download (167KB)

Other nearby airports with instrument procedures:

KAFW - Fort Worth Alliance Airport (9 nm E)
KFTW - Fort Worth Meacham International Airport (12 nm SE)
KNFW - Fort Worth Naval Air Station JRB (Carswell Field) Airport (13 nm S)
KWEA - Parker County Airport (17 nm SW)
KLUD - Decatur Municipal Airport (17 nm N)
 
Loc | Ops | Rwys | IFR | FBO | Links
Com | Nav | Svcs | Stats | Notes


 
Area around 4T2 (Kenneth Copeland Airport)
 
Road maps at: MapQuest Bing Google
 
Aerial photo
WARNING: Photo may not be current or correct
Aerial photo of 4T2 (Kenneth Copeland Airport)
Photo taken 31-May-2007
from the northwest

Do you have a better or more recent aerial photo of Kenneth Copeland Airport that you would like to share? If so, please send us your photo.

 
Sectional chart

 
Airport distance calculator
Flying to Kenneth Copeland Airport? Find the distance to fly.

From to 4T2

Sunrise and sunset
Times for 18-Oct-2018
 Local
(UTC-5)
 Zulu
(UTC)
Morning civil twilight07:1312:13
Sunrise07:3812:38
Sunset18:5323:53
Evening civil twilight19:1800:18

Current date and time
Zulu (UTC)  19-Oct-2018 01:04:21
Local (UTC-5)  18-Oct-2018 20:04:21
 
METAR
KAFW 
9nm E 
190053Z 05005KT 10SM OVC033 17/11 A3029 RMK AO2 SLP254 T01720111
KFTW 
11nm SE 
190053Z 09005KT 10SM OVC032 17/10 A3028 RMK AO2 SLP252 T01670100
KNFW 
13nm S 
190052Z 10005KT 10SM OVC033 17/10 A3029 RMK AO2 SLP240 T01720100 $
KLUD 
17nm N 
118.22 940-927-2365
190055Z AUTO 00000KT 10SM OVC030 16/12 A3030 RMK AO2 T01550118
KDTO 
20nm NE 
190053Z 06004KT 10SM OVC036 17/11 A3029 RMK AO2 SLP254 T01670111
TAF
KAFW 
9nm E 
182059Z 1821/1918 06007KT P6SM VCSH OVC050 FM190300 03008KT P6SM -RA OVC030 FM190900 04006KT 5SM -RA BR OVC015
KFTW 
11nm SE 
182059Z 1821/1918 08011KT P6SM VCSH OVC050 FM190300 03008KT P6SM -RA OVC030 FM190900 04006KT 5SM -RA BR OVC015
KNFW 
13nm S 
1823/1923 07006KT 9999 VCSH OVC050 QNH3025INS TEMPO 1900/1903 9000 -SHRA OVC020 BECMG 1903/1905 04006KT 9999 -RA OVC020 QNH3025INS FM190800 06006KT 8000 RA BR OVC018 QNH3024INS FM191800 VRB06KT 9999 SHRA BKN012 OVC050 QNH3013INS TEMPO 1919/1923 3200 +RA OVC009 AUTOMATED SENSOR METWATCH 1904 TIL 1911 T18/1823Z T12/1914Z FN20048
NOTAMs
Click for the latest NOTAMs
NOTAMs are issued by the DoD/FAA and will open in a separate window not controlled by AirNav.

 

 
 

Would you like to see your business listed on this page?

 If your business provides an interesting product or service to pilots, flight crews, aircraft, or users of the Kenneth Copeland Airport, you should consider listing it here.  To start the listing process, click on the button below
 
Add a business
 

Other Pages about Kenneth Copeland Airport

Update a link
 
Copyright © AirNav, LLC. All rights reserved. Privacy Policy  Contact